Location: Newark
(44.6768°N, 22.5302°E)
Time: 01:05:16
(UTC+00:00)

CUTE 1.7 + AOD 2 - Pass Details

Date: 08 July 2022
Orbit: 589 x 608 km, 97.7° (Epoch: 17 August)

Event Time Altitude Azimuth Distance (km) Brightness Sun altitude
Rises 01:45:28 0° 22° (NNE) 2,844 ? -10.0°
Reaches altitude 10° 01:47:51 10° 33° (NNE) 1,934 ? -9.7°
Maximum altitude 01:51:36 31° 96° (E) 1,046 ? -9.2°
Drops below altitude 10° 01:55:18 10° 159° (SSE) 1,913 ? -8.8°
Sets 01:57:38 0° 170° (S) 2,807 ? -8.5°
